Location: Unnamed
(48.6007°N, 2.4808°E)
Time: 20:08:59
(UTC+02:00)

DX 1 - Pass Details

Date: 03 April 2023
Orbit: 615 x 625 km, 98.4° (Epoch: 04 June)

Event Time Altitude Azimuth Distance (km) Brightness Sun altitude
Rises 01:22:19 0° 3° (N) 2,899 ? -35.8°
Reaches altitude 10° 01:24:49 10° 350° (N) 1,989 ? -35.9°
Enters shadow 01:26:13 17° 335° (NNW) 1,574 ? -35.9°
